Time,TemperatureF,DewpointF,PressureIn,WindDirection,WindDirectionDegrees,WindSpeedMPH,WindSpeedGustMPH,Humidity,HourlyPrecipIn,Conditions,Clouds,dailyrainin,SoftwareType,DateUTC
2013-05-08 00:01:00,51.3,48.7,29.90,WNW,294,0.0,0.0,91,0.00,,,0.00,meteohub,2013-05-08 07:01:00,
2013-05-08 00:06:00,51.1,48.6,29.90,WNW,294,0.0,0.0,91,0.00,,,0.00,meteohub,2013-05-08 07:06:00,
2013-05-08 00:11:00,50.9,48.4,29.90,WNW,294,0.0,0.0,91,0.00,,,0.00,meteohub,2013-05-08 07:11:00,
2013-05-08 00:16:00,50.7,48.6,29.90,WNW,294,0.0,0.0,92,0.00,,,0.00,meteohub,2013-05-08 07:16:00,
2013-05-08 00:21:00,50.7,48.6,29.90,WNW,294,0.0,0.0,92,0.00,,,0.00,meteohub,2013-05-08 07:21:00,
2013-05-08 00:26:00,50.5,48.4,29.89,WNW,294,0.0,0.0,92,0.00,,,0.00,meteohub,2013-05-08 07:26:00,
2013-05-08 00:31:00,50.4,48.2,29.89,WNW,294,0.0,0.0,92,0.00,,,0.00,meteohub,2013-05-08 07:31:00,
2013-05-08 00:36:00,50.2,48.0,29.89,WNW,294,0.0,0.0,92,0.00,,,0.00,meteohub,2013-05-08 07:36:00,
2013-05-08 00:42:00,50.2,48.2,29.89,WNW,294,0.0,0.0,93,0.00,,,0.00,meteohub,2013-05-08 07:42:00,
2013-05-08 00:47:00,50.2,48.2,29.89,WNW,294,0.0,0.0,93,0.00,,,0.00,meteohub,2013-05-08 07:47:00,
2013-05-08 00:52:00,50.2,48.6,29.89,WNW,294,0.0,0.0,94,0.00,,,0.00,meteohub,2013-05-08 07:52:00,
2013-05-08 00:57:00,50.2,48.6,29.89,WNW,294,0.0,0.0,94,0.00,,,0.00,meteohub,2013-05-08 07:57:00,
2013-05-08 01:02:00,50.0,48.4,29.89,WNW,294,0.0,0.0,94,0.00,,,0.00,meteohub,2013-05-08 08:02:00,
2013-05-08 01:07:00,50.0,48.4,29.89,WNW,294,0.0,0.0,94,0.00,,,0.00,meteohub,2013-05-08 08:07:00,
2013-05-08 01:12:00,49.8,48.2,29.90,WNW,294,0.0,0.0,94,0.00,,,0.00,meteohub,2013-05-08 08:12:00,
2013-05-08 01:17:00,49.8,48.2,29.90,WNW,294,0.0,0.0,94,0.00,,,0.00,meteohub,2013-05-08 08:17:00,
2013-05-08 01:22:00,49.6,48.0,29.90,WNW,294,0.0,0.0,94,0.00,,,0.00,meteohub,2013-05-08 08:22:00,
2013-05-08 01:27:00,49.6,48.0,29.90,WNW,294,0.0,0.0,94,0.00,,,0.00,meteohub,2013-05-08 08:27:00,
2013-05-08 01:32:00,49.6,48.0,29.90,WNW,294,0.0,1.0,94,0.00,,,0.00,meteohub,2013-05-08 08:32:00,
2013-05-08 01:37:00,49.6,48.0,29.90,WNW,294,0.0,1.0,94,0.00,,,0.00,meteohub,2013-05-08 08:37:00,
2013-05-08 01:42:00,49.5,47.8,29.90,WNW,294,0.0,1.0,94,0.00,,,0.00,meteohub,2013-05-08 08:42:00,
2013-05-08 01:47:00,49.5,47.8,29.90,WNW,294,0.0,1.0,94,0.00,,,0.00,meteohub,2013-05-08 08:47:00,
2013-05-08 01:52:00,49.5,48.0,29.90,WNW,294,0.0,1.0,95,0.00,,,0.00,meteohub,2013-05-08 08:52:00,
2013-05-08 01:57:00,49.5,48.0,29.90,WNW,294,0.0,1.0,95,0.00,,,0.00,meteohub,2013-05-08 08:57:00,
2013-05-08 02:02:00,49.5,48.0,29.90,WNW,294,0.0,1.0,95,0.00,,,0.00,meteohub,2013-05-08 09:02:00,
2013-05-08 02:07:00,49.5,48.0,29.90,WNW,294,0.0,0.0,95,0.00,,,0.00,meteohub,2013-05-08 09:07:00,
2013-05-08 02:12:00,49.3,47.8,29.90,WNW,294,0.0,0.0,95,0.00,,,0.00,meteohub,2013-05-08 09:12:00,
2013-05-08 02:17:00,49.3,47.8,29.90,WNW,294,0.0,0.0,95,0.00,,,0.00,meteohub,2013-05-08 09:17:00,
2013-05-08 02:22:00,49.3,47.8,29.90,WNW,294,0.0,0.0,95,0.00,,,0.00,meteohub,2013-05-08 09:22:00,
2013-05-08 02:27:00,49.3,47.8,29.91,WNW,294,0.0,0.0,95,0.00,,,0.00,meteohub,2013-05-08 09:27:00,
2013-05-08 02:32:00,49.5,48.4,29.91,WNW,294,0.0,0.0,96,0.00,,,0.00,meteohub,2013-05-08 09:32:00,
2013-05-08 02:37:00,49.5,48.4,29.91,WNW,294,0.0,0.0,96,0.00,,,0.00,meteohub,2013-05-08 09:37:00,
2013-05-08 02:42:00,49.6,48.6,29.90,WNW,294,0.0,0.0,96,0.00,,,0.00,meteohub,2013-05-08 09:42:00,
2013-05-08 02:47:00,49.6,48.6,29.90,WNW,294,1.0,0.0,96,0.00,,,0.00,meteohub,2013-05-08 09:47:00,
2013-05-08 02:52:00,49.8,48.7,29.90,WNW,294,0.0,1.0,96,0.00,,,0.00,meteohub,2013-05-08 09:52:00,
2013-05-08 02:57:00,49.8,48.7,29.90,WNW,294,0.0,1.0,96,0.00,,,0.00,meteohub,2013-05-08 09:57:00,
2013-05-08 03:02:00,50.2,49.1,29.90,WNW,294,0.0,1.0,96,0.00,,,0.00,meteohub,2013-05-08 10:02:00,
2013-05-08 03:07:00,50.2,49.1,29.90,WNW,294,0.0,1.0,96,0.00,,,0.00,meteohub,2013-05-08 10:07:00,
2013-05-08 03:12:00,50.2,49.1,29.90,WNW,294,0.0,1.0,96,0.00,,,0.00,meteohub,2013-05-08 10:12:00,
2013-05-08 03:17:00,50.4,49.3,29.90,WNW,294,0.0,1.0,96,0.00,,,0.00,meteohub,2013-05-08 10:17:00,
2013-05-08 03:22:00,50.4,49.3,29.90,WNW,294,0.0,1.0,96,0.00,,,0.00,meteohub,2013-05-08 10:22:00,
2013-05-08 03:27:00,50.4,49.3,29.91,WNW,294,0.0,1.0,96,0.00,,,0.00,meteohub,2013-05-08 10:27:00,
2013-05-08 03:32:00,50.4,49.3,29.91,WNW,294,0.0,1.0,96,0.00,,,0.00,meteohub,2013-05-08 10:32:00,
2013-05-08 03:37:00,50.4,49.3,29.91,WNW,294,0.0,1.0,96,0.00,,,0.00,meteohub,2013-05-08 10:37:00,
2013-05-08 03:42:00,50.4,49.3,29.91,WNW,294,0.0,1.0,96,0.00,,,0.00,meteohub,2013-05-08 10:42:00,
2013-05-08 03:47:00,50.4,49.3,29.91,WNW,294,0.0,1.0,96,0.00,,,0.00,meteohub,2013-05-08 10:47:00,
2013-05-08 03:52:00,50.4,49.3,29.91,WNW,294,0.0,1.0,96,0.00,,,0.00,meteohub,2013-05-08 10:52:00,
2013-05-08 03:57:00,50.4,49.3,29.91,WNW,294,0.0,3.0,96,0.00,,,0.00,meteohub,2013-05-08 10:57:00,
2013-05-08 04:02:00,50.2,48.7,29.91,WNW,294,0.0,3.0,95,0.00,,,0.00,meteohub,2013-05-08 11:02:00,
2013-05-08 04:07:00,50.2,48.7,29.91,WNW,294,0.0,3.0,95,0.00,,,0.00,meteohub,2013-05-08 11:07:00,
2013-05-08 04:12:00,50.2,49.1,29.91,WNW,294,0.0,2.0,96,0.00,,,0.00,meteohub,2013-05-08 11:12:00,
2013-05-08 04:17:00,50.2,49.1,29.91,WNW,294,0.0,1.0,96,0.00,,,0.00,meteohub,2013-05-08 11:17:00,
2013-05-08 04:22:00,50.2,48.7,29.91,WNW,294,0.0,1.0,95,0.00,,,0.00,meteohub,2013-05-08 11:22:00,
2013-05-08 04:27:00,50.2,48.7,29.91,WNW,294,0.0,1.0,95,0.00,,,0.00,meteohub,2013-05-08 11:27:00,
2013-05-08 04:32:00,50.2,48.7,29.91,WNW,294,0.0,1.0,95,0.00,,,0.00,meteohub,2013-05-08 11:32:00,
2013-05-08 04:37:00,50.2,48.7,29.91,WNW,294,0.0,3.0,95,0.00,,,0.00,meteohub,2013-05-08 11:37:00,
2013-05-08 04:42:00,50.2,48.7,29.91,WNW,294,0.0,3.0,95,0.00,,,0.00,meteohub,2013-05-08 11:42:00,
2013-05-08 04:47:00,50.0,48.9,29.91,WNW,294,0.0,3.0,96,0.00,,,0.00,meteohub,2013-05-08 11:47:00,
2013-05-08 04:52:00,50.0,48.9,29.91,WNW,294,0.0,2.0,96,0.00,,,0.00,meteohub,2013-05-08 11:52:00,
2013-05-08 04:57:00,50.0,48.9,29.91,WNW,294,0.0,2.0,96,0.00,,,0.00,meteohub,2013-05-08 11:57:00,
2013-05-08 05:02:00,50.0,48.9,29.91,WNW,294,0.0,1.0,96,0.00,,,0.00,meteohub,2013-05-08 12:02:00,
2013-05-08 05:07:00,50.0,48.9,29.91,WNW,294,0.0,1.0,96,0.00,,,0.00,meteohub,2013-05-08 12:07:00,
2013-05-08 05:12:00,49.8,48.7,29.92,WNW,294,0.0,1.0,96,0.00,,,0.00,meteohub,2013-05-08 12:12:00,
2013-05-08 05:17:00,49.8,48.7,29.92,WNW,294,0.0,1.0,96,0.00,,,0.00,meteohub,2013-05-08 12:17:00,
2013-05-08 05:22:00,49.8,48.7,29.92,WNW,294,0.0,0.0,96,0.00,,,0.00,meteohub,2013-05-08 12:22:00,
2013-05-08 05:27:00,49.8,48.7,29.92,WNW,294,0.0,0.0,96,0.00,,,0.00,meteohub,2013-05-08 12:27:00,
2013-05-08 05:32:00,49.8,48.7,29.92,WNW,294,0.0,1.0,96,0.00,,,0.00,meteohub,2013-05-08 12:32:00,
2013-05-08 05:37:00,49.8,48.7,29.92,WNW,294,0.0,1.0,96,0.00,,,0.00,meteohub,2013-05-08 12:37:00,
2013-05-08 05:42:00,49.8,48.7,29.92,WNW,294,0.0,1.0,96,0.00,,,0.00,meteohub,2013-05-08 12:42:00,
2013-05-08 05:47:00,49.8,48.7,29.92,WNW,294,0.0,1.0,96,0.00,,,0.00,meteohub,2013-05-08 12:47:00,
2013-05-08 05:52:00,49.8,48.7,29.92,WNW,294,0.0,3.0,96,0.00,,,0.00,meteohub,2013-05-08 12:52:00,
2013-05-08 05:57:00,49.8,48.7,29.92,WNW,294,0.0,3.0,96,0.00,,,0.00,meteohub,2013-05-08 12:57:00,
2013-05-08 06:02:00,49.8,48.7,29.92,WNW,294,0.0,2.0,96,0.00,,,0.00,meteohub,2013-05-08 13:02:00,
2013-05-08 06:07:00,49.8,48.7,29.92,WNW,294,0.0,2.0,96,0.00,,,0.00,meteohub,2013-05-08 13:07:00,
2013-05-08 06:12:00,49.8,48.7,29.92,WNW,294,0.0,2.0,96,0.00,,,0.00,meteohub,2013-05-08 13:12:00,
2013-05-08 06:17:00,49.6,48.6,29.92,WNW,294,0.0,2.0,96,0.00,,,0.00,meteohub,2013-05-08 13:17:00,
2013-05-08 06:22:00,49.6,48.6,29.92,WNW,294,0.0,2.0,96,0.00,,,0.00,meteohub,2013-05-08 13:22:00,
2013-05-08 06:27:00,49.6,48.6,29.93,WNW,294,0.0,2.0,96,0.00,,,0.00,meteohub,2013-05-08 13:27:00,
2013-05-08 06:32:00,49.6,48.6,29.93,WNW,294,0.0,1.0,96,0.00,,,0.00,meteohub,2013-05-08 13:32:00,
2013-05-08 06:37:00,49.6,48.6,29.93,WNW,294,0.0,3.0,96,0.00,,,0.00,meteohub,2013-05-08 13:37:00,
2013-05-08 06:42:00,49.6,48.6,29.94,WNW,294,0.0,3.0,96,0.00,,,0.00,meteohub,2013-05-08 13:42:00,
2013-05-08 06:47:00,49.6,48.6,29.94,WNW,294,0.0,4.0,96,0.00,,,0.00,meteohub,2013-05-08 13:47:00,
2013-05-08 06:52:00,49.6,48.6,29.94,WNW,294,0.0,4.0,96,0.00,,,0.00,meteohub,2013-05-08 13:52:00,
2013-05-08 06:57:00,49.6,48.6,29.95,WNW,294,0.0,4.0,96,0.00,,,0.00,meteohub,2013-05-08 13:57:00,
2013-05-08 07:02:00,49.6,48.6,29.95,WNW,294,0.0,0.0,96,0.00,,,0.00,meteohub,2013-05-08 14:02:00,
2013-05-08 07:07:00,49.6,48.6,29.95,WNW,294,0.0,3.0,96,0.00,,,0.00,meteohub,2013-05-08 14:07:00,
2013-05-08 07:12:00,49.6,48.6,29.95,WNW,294,0.0,3.0,96,0.00,,,0.00,meteohub,2013-05-08 14:12:00,
2013-05-08 07:17:00,49.6,48.6,29.95,WNW,294,0.0,3.0,96,0.00,,,0.00,meteohub,2013-05-08 14:17:00,
2013-05-08 07:22:00,49.8,48.7,29.95,WNW,294,0.0,1.0,96,0.00,,,0.00,meteohub,2013-05-08 14:22:00,
2013-05-08 07:27:00,49.8,48.7,29.96,WNW,294,2.0,2.0,96,0.00,,,0.00,meteohub,2013-05-08 14:27:00,
2013-05-08 07:32:00,49.8,48.7,29.96,WNW,294,0.0,2.0,96,0.00,,,0.00,meteohub,2013-05-08 14:32:00,
2013-05-08 07:37:00,49.8,48.7,29.96,WNW,294,0.0,4.0,96,0.00,,,0.00,meteohub,2013-05-08 14:37:00,
2013-05-08 07:42:00,50.0,48.9,29.96,WNW,294,0.0,4.0,96,0.00,,,0.00,meteohub,2013-05-08 14:42:00,
2013-05-08 07:47:00,50.0,48.9,29.96,WNW,294,0.0,4.0,96,0.00,,,0.00,meteohub,2013-05-08 14:47:00,
2013-05-08 07:52:00,50.0,48.9,29.96,WNW,294,3.0,4.0,96,0.00,,,0.00,meteohub,2013-05-08 14:52:00,
2013-05-08 07:57:00,50.0,48.9,29.96,WNW,294,0.0,4.0,96,0.00,,,0.00,meteohub,2013-05-08 14:57:00,
2013-05-08 08:02:00,50.0,48.9,29.96,WNW,294,0.0,4.0,96,0.00,,,0.00,meteohub,2013-05-08 15:02:00,
2013-05-08 08:07:00,50.2,49.1,29.96,WNW,294,0.0,3.0,96,0.00,,,0.00,meteohub,2013-05-08 15:07:00,
2013-05-08 08:12:00,50.4,49.3,29.96,WNW,294,0.0,1.0,96,0.00,,,0.00,meteohub,2013-05-08 15:12:00,
2013-05-08 08:17:00,50.4,49.3,29.96,WNW,297,0.0,3.0,96,0.00,,,0.00,meteohub,2013-05-08 15:17:00,
2013-05-08 08:22:00,50.5,49.5,29.96,WNW,297,1.0,3.0,96,0.00,,,0.00,meteohub,2013-05-08 15:22:00,
2013-05-08 08:27:00,50.5,49.5,29.97,WNW,297,0.0,4.0,96,0.00,,,0.00,meteohub,2013-05-08 15:27:00,
2013-05-08 08:32:00,50.7,49.6,29.97,WNW,297,0.0,4.0,96,0.00,,,0.00,meteohub,2013-05-08 15:32:00,
2013-05-08 08:37:00,51.1,50.0,29.97,WNW,297,1.0,4.0,96,0.00,,,0.00,meteohub,2013-05-08 15:37:00,
2013-05-08 08:42:00,51.1,49.6,29.97,WNW,297,0.0,3.0,95,0.00,,,0.00,meteohub,2013-05-08 15:42:00,
2013-05-08 08:47:00,51.4,50.4,29.97,WNW,297,0.0,3.0,96,0.00,,,0.00,meteohub,2013-05-08 15:47:00,
2013-05-08 08:52:00,51.4,50.0,29.97,WNW,297,0.0,3.0,95,0.00,,,0.00,meteohub,2013-05-08 15:52:00,
2013-05-08 08:57:00,51.4,49.8,29.98,WNW,297,0.0,5.0,94,0.00,,,0.00,meteohub,2013-05-08 15:57:00,
2013-05-08 09:02:00,51.6,50.0,29.98,WNW,297,2.0,5.0,94,0.00,,,0.00,meteohub,2013-05-08 16:02:00,
2013-05-08 09:07:00,51.6,50.0,29.98,WNW,297,0.0,5.0,94,0.00,,,0.00,meteohub,2013-05-08 16:07:00,
2013-05-08 09:12:00,51.8,50.2,29.98,WNW,297,0.0,5.0,94,0.00,,,0.00,meteohub,2013-05-08 16:12:00,
2013-05-08 09:17:00,52.0,50.4,29.98,WNW,297,2.0,5.0,94,0.00,,,0.00,meteohub,2013-05-08 16:17:00,
2013-05-08 09:22:00,52.0,49.6,29.98,WNW,296,0.0,5.0,92,0.00,,,0.00,meteohub,2013-05-08 16:22:00,
2013-05-08 09:27:00,52.0,49.6,29.98,WNW,296,0.0,5.0,92,0.00,,,0.00,meteohub,2013-05-08 16:27:00,
2013-05-08 09:32:00,52.0,50.0,29.98,WNW,296,0.0,5.0,93,0.00,,,0.00,meteohub,2013-05-08 16:32:00,
2013-05-08 09:37:00,52.2,50.2,29.98,WNW,296,0.0,4.0,93,0.00,,,0.00,meteohub,2013-05-08 16:37:00,
2013-05-08 09:42:00,52.2,50.2,29.99,WNW,296,0.0,4.0,93,0.00,,,0.00,meteohub,2013-05-08 16:42:00,
2013-05-08 09:47:00,52.2,50.2,29.99,WNW,296,0.0,3.0,93,0.00,,,0.00,meteohub,2013-05-08 16:47:00,
2013-05-08 09:52:00,52.0,50.0,29.99,WNW,296,0.0,3.0,93,0.00,,,0.00,meteohub,2013-05-08 16:52:00,
2013-05-08 09:57:00,52.0,50.0,29.99,WNW,296,0.0,3.0,93,0.00,,,0.00,meteohub,2013-05-08 16:57:00,
2013-05-08 10:02:00,52.2,49.8,29.99,WNW,296,0.0,4.0,92,0.00,,,0.00,meteohub,2013-05-08 17:02:00,
2013-05-08 10:07:00,52.3,50.4,29.99,WNW,296,1.0,4.0,93,0.00,,,0.00,meteohub,2013-05-08 17:07:00,
2013-05-08 10:12:00,52.3,50.0,29.99,WNW,296,0.0,3.0,92,0.00,,,0.00,meteohub,2013-05-08 17:12:00,
2013-05-08 10:17:00,52.5,50.0,29.99,WNW,296,0.0,3.0,91,0.00,,,0.00,meteohub,2013-05-08 17:17:00,
2013-05-08 10:22:00,52.5,50.0,29.99,WNW,296,2.0,3.0,91,0.00,,,0.00,meteohub,2013-05-08 17:22:00,
2013-05-08 10:27:00,52.5,50.2,29.99,WNW,296,1.0,3.0,92,0.00,,,0.00,meteohub,2013-05-08 17:27:00,
2013-05-08 10:32:00,52.7,50.4,29.99,WNW,295,0.0,4.0,92,0.00,,,0.00,meteohub,2013-05-08 17:32:00,
2013-05-08 10:37:00,53.1,50.7,29.99,WNW,295,2.0,5.0,92,0.00,,,0.00,meteohub,2013-05-08 17:37:00,
2013-05-08 10:42:00,53.4,50.9,29.99,WNW,296,0.0,5.0,91,0.00,,,0.00,meteohub,2013-05-08 17:42:00,
2013-05-08 10:47:00,54.0,51.4,29.99,WNW,297,1.0,5.0,91,0.00,,,0.00,meteohub,2013-05-08 17:47:00,
2013-05-08 10:52:00,54.3,51.1,29.99,WNW,295,1.0,5.0,89,0.00,,,0.00,meteohub,2013-05-08 17:52:00,
2013-05-08 10:57:00,54.7,51.4,29.99,WNW,295,0.0,5.0,89,0.00,,,0.00,meteohub,2013-05-08 17:57:00,
2013-05-08 11:02:00,54.9,51.6,29.99,WNW,296,3.0,5.0,89,0.00,,,0.00,meteohub,2013-05-08 18:02:00,
2013-05-08 11:07:00,54.7,50.9,29.99,WNW,296,2.0,5.0,87,0.00,,,0.00,meteohub,2013-05-08 18:07:00,
2013-05-08 11:12:00,55.0,51.8,29.99,WNW,296,0.0,5.0,89,0.00,,,0.00,meteohub,2013-05-08 18:12:00,
2013-05-08 11:17:00,55.4,51.6,29.99,WNW,296,0.0,4.0,87,0.00,,,0.00,meteohub,2013-05-08 18:17:00,
2013-05-08 11:22:00,55.8,52.0,29.99,WNW,296,2.0,4.0,87,0.00,,,0.00,meteohub,2013-05-08 18:22:00,
2013-05-08 11:27:00,55.8,51.3,30.00,WNW,289,1.0,6.0,85,0.00,,,0.00,meteohub,2013-05-08 18:27:00,
2013-05-08 11:32:00,55.6,51.8,30.00,NW,314,0.0,7.0,87,0.00,,,0.00,meteohub,2013-05-08 18:32:00,
2013-05-08 11:37:00,55.8,51.3,30.00,NW,314,0.0,7.0,85,0.00,,,0.00,meteohub,2013-05-08 18:37:00,
2013-05-08 11:42:00,55.6,51.1,30.00,NW,315,0.0,7.0,85,0.00,,,0.00,meteohub,2013-05-08 18:42:00,
2013-05-08 11:47:00,55.8,52.0,30.00,NW,315,0.0,5.0,87,0.00,,,0.00,meteohub,2013-05-08 18:47:00,
2013-05-08 11:52:00,55.9,51.4,30.00,WNW,291,3.0,5.0,85,0.00,,,0.00,meteohub,2013-05-08 18:52:00,
2013-05-08 11:57:00,55.9,51.8,30.00,WNW,291,2.0,7.0,86,0.00,,,0.00,meteohub,2013-05-08 18:57:00,
2013-05-08 12:02:00,56.1,52.0,30.00,WNW,291,0.0,7.0,86,0.00,,,0.00,meteohub,2013-05-08 19:02:00,
2013-05-08 12:07:00,56.5,52.3,30.00,West,281,0.0,7.0,86,0.00,,,0.00,meteohub,2013-05-08 19:07:00,
2013-05-08 12:12:00,56.7,51.6,29.99,West,273,2.0,5.0,83,0.00,,,0.00,meteohub,2013-05-08 19:12:00,
2013-05-08 12:17:00,56.8,52.0,29.99,West,273,2.0,5.0,84,0.00,,,0.00,meteohub,2013-05-08 19:17:00,
2013-05-08 12:22:00,57.0,52.2,29.99,West,274,0.0,5.0,84,0.00,,,0.00,meteohub,2013-05-08 19:22:00,
2013-05-08 12:27:00,57.2,52.3,29.99,West,261,3.0,6.0,84,0.00,,,0.00,meteohub,2013-05-08 19:27:00,
2013-05-08 12:32:00,57.2,52.2,29.99,WNW,284,2.0,6.0,83,0.00,,,0.00,meteohub,2013-05-08 19:32:00,
2013-05-08 12:37:00,57.0,52.2,29.99,West,275,3.0,7.0,84,0.00,,,0.00,meteohub,2013-05-08 19:37:00,
2013-05-08 12:42:00,57.2,52.3,29.99,WNW,285,5.0,7.0,84,0.00,,,0.00,meteohub,2013-05-08 19:42:00,
2013-05-08 12:47:00,57.4,52.3,29.99,West,276,0.0,9.0,83,0.00,,,0.00,meteohub,2013-05-08 19:47:00,
2013-05-08 12:52:00,57.6,52.7,29.99,WNW,299,3.0,9.0,84,0.00,,,0.00,meteohub,2013-05-08 19:52:00,
2013-05-08 12:57:00,57.9,52.5,29.98,WNW,294,2.0,9.0,82,0.00,,,0.00,meteohub,2013-05-08 19:57:00,
2013-05-08 13:02:00,57.9,52.2,29.98,West,259,2.0,10.0,81,0.00,,,0.00,meteohub,2013-05-08 20:02:00,
2013-05-08 13:07:00,57.7,52.9,29.98,West,265,2.0,13.0,84,0.00,,,0.00,meteohub,2013-05-08 20:07:00,
2013-05-08 13:12:00,57.9,52.5,29.98,West,268,3.0,13.0,82,0.00,,,0.00,meteohub,2013-05-08 20:12:00,
2013-05-08 13:17:00,58.3,52.9,29.98,West,260,1.0,13.0,82,0.00,,,0.00,meteohub,2013-05-08 20:17:00,
2013-05-08 13:22:00,58.6,52.9,29.98,WSW,251,5.0,10.0,81,0.00,,,0.00,meteohub,2013-05-08 20:22:00,
2013-05-08 13:27:00,58.8,52.7,29.98,West,280,2.0,14.0,80,0.00,,,0.00,meteohub,2013-05-08 20:27:00,
2013-05-08 13:32:00,59.5,53.1,29.98,West,281,4.0,14.0,79,0.00,,,0.00,meteohub,2013-05-08 20:32:00,
2013-05-08 13:37:00,59.9,53.8,29.98,West,270,1.0,14.0,80,0.00,,,0.00,meteohub,2013-05-08 20:37:00,
2013-05-08 13:42:00,60.4,54.0,29.98,North,355,3.0,9.0,79,0.00,,,0.00,meteohub,2013-05-08 20:42:00,
2013-05-08 13:47:00,60.6,53.4,29.98,WNW,286,4.0,10.0,77,0.00,,,0.00,meteohub,2013-05-08 20:47:00,
2013-05-08 13:52:00,60.3,53.1,29.98,NW,312,0.0,10.0,77,0.00,,,0.00,meteohub,2013-05-08 20:52:00,
2013-05-08 13:57:00,60.4,53.6,29.97,WNW,285,3.0,12.0,78,0.00,,,0.00,meteohub,2013-05-08 20:57:00,
2013-05-08 14:02:00,60.6,53.4,29.97,WNW,289,2.0,12.0,77,0.00,,,0.00,meteohub,2013-05-08 21:02:00,
2013-05-08 14:07:00,61.2,53.6,29.97,WNW,284,3.0,7.0,76,0.00,,,0.00,meteohub,2013-05-08 21:07:00,
2013-05-08 14:12:00,61.2,52.9,29.97,West,265,6.0,7.0,74,0.00,,,0.00,meteohub,2013-05-08 21:12:00,
2013-05-08 14:17:00,61.0,54.1,29.97,West,270,2.0,15.0,78,0.00,,,0.00,meteohub,2013-05-08 21:17:00,
2013-05-08 14:22:00,61.0,53.4,29.97,West,279,4.0,15.0,76,0.00,,,0.00,meteohub,2013-05-08 21:22:00,
2013-05-08 14:27:00,61.3,53.8,29.97,WNW,288,5.0,15.0,76,0.00,,,0.00,meteohub,2013-05-08 21:27:00,
2013-05-08 14:32:00,61.3,53.4,29.97,NNW,340,0.0,7.0,75,0.00,,,0.00,meteohub,2013-05-08 21:32:00,
2013-05-08 14:37:00,61.3,53.8,29.97,WNW,290,0.0,10.0,76,0.00,,,0.00,meteohub,2013-05-08 21:37:00,
2013-05-08 14:42:00,61.5,54.3,29.97,WSW,250,6.0,10.0,77,0.00,,,0.00,meteohub,2013-05-08 21:42:00,
2013-05-08 14:47:00,61.5,54.3,29.97,West,270,1.0,10.0,77,0.00,,,0.00,meteohub,2013-05-08 21:47:00,
2013-05-08 14:52:00,62.2,53.8,29.97,NW,325,5.0,7.0,74,0.00,,,0.00,meteohub,2013-05-08 21:52:00,
2013-05-08 14:57:00,62.4,53.6,29.96,North,355,4.0,7.0,73,0.00,,,0.00,meteohub,2013-05-08 21:57:00,
2013-05-08 15:02:00,62.1,54.0,29.96,NNW,343,0.0,7.0,75,0.00,,,0.00,meteohub,2013-05-08 22:02:00,
2013-05-08 15:07:00,61.9,53.8,29.96,NW,306,1.0,7.0,75,0.00,,,0.00,meteohub,2013-05-08 22:07:00,
2013-05-08 15:12:00,61.9,53.4,29.96,West,275,4.0,7.0,74,0.00,,,0.00,meteohub,2013-05-08 22:12:00,
2013-05-08 15:17:00,61.5,53.6,29.96,West,280,0.0,7.0,75,0.00,,,0.00,meteohub,2013-05-08 22:17:00,
2013-05-08 15:22:00,61.5,53.6,29.96,NW,306,2.0,8.0,75,0.00,,,0.00,meteohub,2013-05-08 22:22:00,
2013-05-08 15:27:00,61.5,53.6,29.96,WNW,289,5.0,10.0,75,0.00,,,0.00,meteohub,2013-05-08 22:27:00,
2013-05-08 15:32:00,61.5,53.2,29.96,West,261,3.0,10.0,74,0.00,,,0.00,meteohub,2013-05-08 22:32:00,
2013-05-08 15:37:00,61.9,54.3,29.96,West,266,5.0,11.0,76,0.00,,,0.00,meteohub,2013-05-08 22:37:00,
2013-05-08 15:42:00,62.2,54.5,29.95,West,266,3.0,11.0,76,0.00,,,0.00,meteohub,2013-05-08 22:42:00,
2013-05-08 15:47:00,62.6,54.5,29.95,West,274,0.0,11.0,75,0.00,,,0.00,meteohub,2013-05-08 22:47:00,
2013-05-08 15:52:00,63.1,54.3,29.95,West,274,0.0,10.0,73,0.00,,,0.00,meteohub,2013-05-08 22:52:00,
2013-05-08 15:57:00,62.8,53.6,29.95,WSW,248,0.0,6.0,72,0.00,,,0.00,meteohub,2013-05-08 22:57:00,
2013-05-08 16:02:00,62.2,53.8,29.95,SW,234,0.0,12.0,74,0.00,,,0.00,meteohub,2013-05-08 23:02:00,
2013-05-08 16:07:00,62.8,54.7,29.95,SW,234,1.0,12.0,75,0.00,,,0.00,meteohub,2013-05-08 23:07:00,
2013-05-08 16:12:00,63.1,53.6,29.94,WNW,301,0.0,12.0,71,0.00,,,0.00,meteohub,2013-05-08 23:12:00,
2013-05-08 16:17:00,63.0,53.8,29.94,NNW,333,3.0,8.0,72,0.00,,,0.00,meteohub,2013-05-08 23:17:00,
2013-05-08 16:22:00,62.2,53.4,29.94,North,5,2.0,12.0,73,0.00,,,0.00,meteohub,2013-05-08 23:22:00,
2013-05-08 16:27:00,62.1,53.2,29.94,WNW,300,1.0,12.0,73,0.00,,,0.00,meteohub,2013-05-08 23:27:00,
2013-05-08 16:32:00,61.9,53.4,29.94,North,9,7.0,12.0,74,0.00,,,0.00,meteohub,2013-05-08 23:32:00,
2013-05-08 16:37:00,61.2,52.9,29.94,NNW,348,1.0,10.0,74,0.00,,,0.00,meteohub,2013-05-08 23:37:00,
2013-05-08 16:42:00,60.6,52.7,29.95,NNW,337,0.0,10.0,75,0.00,,,0.00,meteohub,2013-05-08 23:42:00,
2013-05-08 16:47:00,60.8,52.9,29.95,NNW,337,2.0,10.0,75,0.00,,,0.00,meteohub,2013-05-08 23:47:00,
2013-05-08 16:52:00,61.0,52.7,29.95,NNW,336,0.0,6.0,74,0.00,,,0.00,meteohub,2013-05-08 23:52:00,
2013-05-08 16:57:00,61.0,53.4,29.94,NNW,327,2.0,4.0,76,0.00,,,0.00,meteohub,2013-05-08 23:57:00,
2013-05-08 17:02:00,60.6,52.7,29.94,NW,320,0.0,6.0,75,0.00,,,0.00,meteohub,2013-05-09 00:02:00,
2013-05-08 17:07:00,60.4,52.9,29.94,NW,319,1.0,6.0,76,0.00,,,0.00,meteohub,2013-05-09 00:07:00,
2013-05-08 17:12:00,60.4,52.9,29.94,North,9,0.0,6.0,76,0.00,,,0.00,meteohub,2013-05-09 00:12:00,
2013-05-08 17:17:00,59.9,53.1,29.94,WNW,295,1.0,10.0,78,0.00,,,0.00,meteohub,2013-05-09 00:17:00,
2013-05-08 17:22:00,59.5,52.3,29.94,WNW,286,0.0,10.0,77,0.00,,,0.00,meteohub,2013-05-09 00:22:00,
2013-05-08 17:27:00,59.2,52.3,29.95,West,279,1.0,10.0,78,0.00,,,0.00,meteohub,2013-05-09 00:27:00,
2013-05-08 17:32:00,58.5,52.0,29.95,West,275,3.0,6.0,79,0.00,,,0.00,meteohub,2013-05-09 00:32:00,
2013-05-08 17:37:00,57.9,51.8,29.95,West,273,0.0,7.0,80,0.00,,,0.00,meteohub,2013-05-09 00:37:00,
2013-05-08 17:42:00,57.6,51.8,29.94,NW,310,0.0,7.0,81,0.00,,,0.00,meteohub,2013-05-09 00:42:00,
2013-05-08 17:47:00,57.2,51.4,29.94,NW,311,0.0,7.0,81,0.00,,,0.00,meteohub,2013-05-09 00:47:00,
2013-05-08 17:52:00,56.8,51.4,29.94,NNW,333,2.0,7.0,82,0.00,,,0.00,meteohub,2013-05-09 00:52:00,
2013-05-08 17:57:00,56.3,51.3,29.95,NW,312,1.0,9.0,83,0.00,,,0.00,meteohub,2013-05-09 00:57:00,
2013-05-08 18:02:00,55.9,51.3,29.95,NW,321,2.0,9.0,84,0.00,,,0.00,meteohub,2013-05-09 01:02:00,
2013-05-08 18:07:00,55.8,51.1,29.95,NNW,336,2.0,9.0,84,0.00,,,0.00,meteohub,2013-05-09 01:07:00,
2013-05-08 18:12:00,55.4,50.7,29.95,NNW,336,3.0,7.0,84,0.00,,,0.00,meteohub,2013-05-09 01:12:00,
2013-05-08 18:17:00,55.0,50.5,29.95,NNW,341,1.0,5.0,85,0.00,,,0.00,meteohub,2013-05-09 01:17:00,
2013-05-08 18:22:00,54.9,50.4,29.95,NNW,338,2.0,6.0,85,0.00,,,0.00,meteohub,2013-05-09 01:22:00,
2013-05-08 18:27:00,54.3,50.2,29.95,NNW,341,3.0,7.0,86,0.00,,,0.00,meteohub,2013-05-09 01:27:00,
2013-05-08 18:32:00,54.1,50.0,29.95,NNW,340,0.0,7.0,86,0.00,,,0.00,meteohub,2013-05-09 01:32:00,
2013-05-08 18:37:00,54.0,50.2,29.95,NW,325,0.0,7.0,87,0.00,,,0.00,meteohub,2013-05-09 01:37:00,
2013-05-08 18:42:00,54.0,50.2,29.95,NW,325,0.0,7.0,87,0.00,,,0.00,meteohub,2013-05-09 01:42:00,
2013-05-08 18:47:00,53.8,50.0,29.95,NW,324,1.0,7.0,87,0.00,,,0.00,meteohub,2013-05-09 01:47:00,
2013-05-08 18:52:00,53.6,49.8,29.95,NW,321,0.0,6.0,87,0.00,,,0.00,meteohub,2013-05-09 01:52:00,
2013-05-08 18:57:00,53.4,50.0,29.95,NW,321,1.0,6.0,88,0.00,,,0.00,meteohub,2013-05-09 01:57:00,
2013-05-08 19:02:00,53.4,50.0,29.95,NW,321,0.0,6.0,88,0.00,,,0.00,meteohub,2013-05-09 02:02:00,
2013-05-08 19:07:00,53.2,49.8,29.95,NW,321,0.0,5.0,88,0.00,,,0.00,meteohub,2013-05-09 02:07:00,
2013-05-08 19:12:00,53.2,49.8,29.95,NW,321,0.0,4.0,88,0.00,,,0.00,meteohub,2013-05-09 02:12:00,
2013-05-08 19:17:00,53.2,49.8,29.95,NW,321,0.0,4.0,88,0.00,,,0.00,meteohub,2013-05-09 02:17:00,
2013-05-08 19:22:00,53.1,49.6,29.95,NW,321,0.0,4.0,88,0.00,,,0.00,meteohub,2013-05-09 02:22:00,
2013-05-08 19:27:00,53.1,49.6,29.95,NW,321,0.0,4.0,88,0.00,,,0.00,meteohub,2013-05-09 02:27:00,
2013-05-08 19:32:00,53.1,49.6,29.95,NW,321,0.0,5.0,88,0.00,,,0.00,meteohub,2013-05-09 02:32:00,
2013-05-08 19:37:00,52.9,49.5,29.95,NW,321,2.0,5.0,88,0.00,,,0.00,meteohub,2013-05-09 02:37:00,
2013-05-08 19:42:00,52.9,49.5,29.96,NNE,15,0.0,5.0,88,0.00,,,0.00,meteohub,2013-05-09 02:42:00,
2013-05-08 19:47:00,52.9,49.5,29.96,NNE,15,0.0,7.0,88,0.00,,,0.00,meteohub,2013-05-09 02:47:00,
2013-05-08 19:52:00,52.7,49.5,29.96,NNE,15,0.0,7.0,89,0.00,,,0.00,meteohub,2013-05-09 02:52:00,
2013-05-08 19:57:00,52.5,49.5,29.96,NNE,15,0.0,3.0,89,0.00,,,0.00,meteohub,2013-05-09 02:57:00,
2013-05-08 20:02:00,52.5,49.5,29.96,NNE,15,0.0,2.0,89,0.00,,,0.00,meteohub,2013-05-09 03:02:00,
2013-05-08 20:07:00,52.3,49.3,29.96,NNE,15,0.0,3.0,89,0.00,,,0.00,meteohub,2013-05-09 03:07:00,
2013-05-08 20:12:00,52.3,49.3,29.96,NNE,13,0.0,3.0,89,0.00,,,0.00,meteohub,2013-05-09 03:12:00,
2013-05-08 20:17:00,52.2,49.1,29.96,NNE,13,0.0,5.0,89,0.00,,,0.00,meteohub,2013-05-09 03:17:00,
2013-05-08 20:22:00,52.2,49.3,29.96,NNE,13,0.0,5.0,90,0.00,,,0.00,meteohub,2013-05-09 03:22:00,
2013-05-08 20:27:00,52.0,49.1,29.97,NNE,13,0.0,5.0,90,0.00,,,0.00,meteohub,2013-05-09 03:27:00,
2013-05-08 20:32:00,52.0,49.1,29.97,NNE,13,0.0,2.0,90,0.00,,,0.00,meteohub,2013-05-09 03:32:00,
2013-05-08 20:37:00,52.0,49.1,29.97,NNE,13,0.0,2.0,90,0.00,,,0.00,meteohub,2013-05-09 03:37:00,
2013-05-08 20:42:00,52.0,49.1,29.97,NNE,13,0.0,1.0,90,0.00,,,0.00,meteohub,2013-05-09 03:42:00,
2013-05-08 20:47:00,52.2,49.3,29.97,NNE,13,0.0,4.0,90,0.00,,,0.00,meteohub,2013-05-09 03:47:00,
2013-05-08 20:52:00,52.2,49.3,29.97,NNE,13,0.0,4.0,90,0.00,,,0.00,meteohub,2013-05-09 03:52:00,
2013-05-08 20:57:00,52.3,49.5,29.97,NNE,13,0.0,4.0,90,0.00,,,0.00,meteohub,2013-05-09 03:57:00,
2013-05-08 21:01:00,52.3,49.3,29.97,NNE,13,0.0,4.0,89,0.00,,,0.00,meteohub,2013-05-09 04:01:00,
2013-05-08 21:02:00,52.3,49.3,29.97,NNE,13,0.0,4.0,89,0.00,,,0.00,meteohub,2013-05-09 04:02:00,
2013-05-08 21:07:00,52.5,49.5,29.97,NNE,13,0.0,4.0,89,0.00,,,0.00,meteohub,2013-05-09 04:07:00,
2013-05-08 21:12:00,52.5,49.5,29.97,NNE,13,0.0,4.0,89,0.00,,,0.00,meteohub,2013-05-09 04:12:00,
2013-05-08 21:17:00,52.5,50.2,29.97,NNE,13,0.0,1.0,92,0.00,,,0.00,meteohub,2013-05-09 04:17:00,
2013-05-08 21:22:00,52.5,49.5,29.97,NNE,13,0.0,1.0,89,0.00,,,0.00,meteohub,2013-05-09 04:22:00,
2013-05-08 21:27:00,52.5,49.5,29.97,NNE,13,0.0,1.0,89,0.00,,,0.00,meteohub,2013-05-09 04:27:00,
2013-05-08 21:32:00,52.5,49.1,29.97,NNE,13,0.0,1.0,88,0.00,,,0.00,meteohub,2013-05-09 04:32:00,
2013-05-08 21:37:00,52.3,49.3,29.97,NNE,13,0.0,2.0,89,0.00,,,0.00,meteohub,2013-05-09 04:37:00,
2013-05-08 21:42:00,52.3,48.9,29.98,NNE,13,0.0,2.0,88,0.00,,,0.00,meteohub,2013-05-09 04:42:00,
2013-05-08 21:47:00,52.3,48.9,29.98,NNE,13,0.0,2.0,88,0.00,,,0.00,meteohub,2013-05-09 04:47:00,
2013-05-08 21:52:00,52.2,49.1,29.98,NNE,13,0.0,1.0,89,0.00,,,0.00,meteohub,2013-05-09 04:52:00,
2013-05-08 21:57:00,52.0,48.9,29.99,NNE,13,0.0,1.0,89,0.00,,,0.00,meteohub,2013-05-09 04:57:00,
2013-05-08 22:02:00,51.6,48.6,29.99,NNE,13,0.0,1.0,89,0.00,,,0.00,meteohub,2013-05-09 05:02:00,
2013-05-08 22:07:00,51.4,48.4,29.99,NNE,13,0.0,1.0,89,0.00,,,0.00,meteohub,2013-05-09 05:07:00,
2013-05-08 22:12:00,51.3,48.2,29.99,NNE,13,0.0,0.0,89,0.00,,,0.00,meteohub,2013-05-09 05:12:00,
2013-05-08 22:17:00,51.1,48.0,29.99,NNE,13,0.0,0.0,89,0.00,,,0.00,meteohub,2013-05-09 05:17:00,
2013-05-08 22:22:00,50.7,47.8,29.99,NNE,13,0.0,0.0,90,0.00,,,0.00,meteohub,2013-05-09 05:22:00,
2013-05-08 22:27:00,50.5,48.0,29.99,North,5,0.0,0.0,91,0.00,,,0.00,meteohub,2013-05-09 05:27:00,
2013-05-08 22:32:00,50.5,48.0,29.99,North,5,1.0,5.0,91,0.00,,,0.00,meteohub,2013-05-09 05:32:00,
2013-05-08 22:37:00,50.5,48.4,29.99,North,5,0.0,5.0,92,0.00,,,0.00,meteohub,2013-05-09 05:37:00,
2013-05-08 22:42:00,50.5,48.0,29.99,North,5,0.0,5.0,91,0.00,,,0.00,meteohub,2013-05-09 05:42:00,
2013-05-08 22:47:00,50.5,48.0,29.99,North,5,0.0,3.0,91,0.00,,,0.00,meteohub,2013-05-09 05:47:00,
2013-05-08 22:52:00,50.4,47.8,29.99,North,5,0.0,2.0,91,0.00,,,0.00,meteohub,2013-05-09 05:52:00,
2013-05-08 22:57:00,50.2,47.7,29.99,North,5,0.0,0.0,91,0.00,,,0.00,meteohub,2013-05-09 05:57:00,
2013-05-08 23:02:00,50.0,47.5,29.99,North,5,0.0,0.0,91,0.00,,,0.00,meteohub,2013-05-09 06:02:00,
2013-05-08 23:07:00,49.6,47.1,29.99,North,5,0.0,0.0,91,0.00,,,0.00,meteohub,2013-05-09 06:07:00,
2013-05-08 23:12:00,49.6,47.5,29.99,North,5,0.0,0.0,92,0.00,,,0.00,meteohub,2013-05-09 06:12:00,
2013-05-08 23:17:00,49.5,47.3,29.99,North,5,0.0,0.0,92,0.00,,,0.00,meteohub,2013-05-09 06:17:00,
2013-05-08 23:22:00,49.5,47.3,29.99,North,5,0.0,0.0,92,0.00,,,0.00,meteohub,2013-05-09 06:22:00,
2013-05-08 23:27:00,49.3,47.1,29.99,North,5,0.0,0.0,92,0.00,,,0.00,meteohub,2013-05-09 06:27:00,
2013-05-08 23:32:00,48.9,46.8,29.99,North,5,0.0,0.0,92,0.00,,,0.00,meteohub,2013-05-09 06:32:00,
2013-05-08 23:37:00,48.7,46.6,29.99,North,5,0.0,0.0,92,0.00,,,0.00,meteohub,2013-05-09 06:37:00,
2013-05-08 23:42:00,48.7,46.8,29.99,North,5,0.0,0.0,93,0.00,,,0.00,meteohub,2013-05-09 06:42:00,
2013-05-08 23:47:00,48.6,46.4,29.99,North,5,0.0,0.0,92,0.00,,,0.00,meteohub,2013-05-09 06:47:00,
2013-05-08 23:52:00,48.4,46.4,29.99,North,5,0.0,0.0,93,0.00,,,0.00,meteohub,2013-05-09 06:52:00,
2013-05-08 23:57:00,48.4,46.8,29.99,North,5,0.0,0.0,94,0.00,,,0.00,meteohub,2013-05-09 06:57:00,